World > North America > United States > Vermont

Pittsfield, Vermont Regional Weather

Lat: 43.78N, Lon: 72.82W
Wx Zone: VTZ019Web Search
Pittsfield Weather Warning NWS WEATHER ALERT FOR THE PITTSFIELD, VT AREA - WINTER STORM WARNING Issued: 329 AM EDT Fri Apr 16 2021 Pittsfield Weather Warning  

If you are on your PC, you can easily pass this page to your phone by scanning the QR Code near the bottom with your camera.

Feedback


°F Click to change Pittsfield hourly weather to Imperial units.Click to change Pittsfield hourly weather to Metric units. °C
Pittsfield Weather Map
UTC Time: 4/16/2021, 16:16
Your Time:

Pittsfield, VT Regional Weather

Expires:202104161700;;645515
ASUS41 KBTV 161611
RWRBTV
VERMONT REGIONAL WEATHER ROUNDUP
NATIONAL WEATHER SERVICE BURLINGTON VT
1200 PM EDT FRI APR 16 2021

NOTE: "FAIR" INDICATES FEW OR NO CLOUDS BELOW 12,000 FEET WITH NO 
SIGNIFICANT WEATHER AND/OR OBSTRUCTIONS TO VISIBILITY.

* THESE REPORTS ARE NOT UNDER NWS QUALITY CONTROL AND/OR DO NOT
  REPORT WEATHER SUCH AS PRECIPITATION AND FOG.


VTZ001>019-161700-
_____VERMONT_
  
CITY           SKY/WX    TMP DP  RH WIND       PRES   REMARKS
BURLINGTON     LGT RAIN  40  35  83 NE10      29.69F                  
MONTPELIER     SNOW      32  32 100 N7        29.69F VSB 1/2 WCI  26  
MORRISVILLE    LGT SNOW  34  33  96 N7        29.69F VSB 3/4 WCI  28  
ST. JOHNSBURY*   N/A     34  33  96 MISG      29.65F                  
LYNDONVILLE*   LGT SNOW  33  32  95 NW7       29.66F VSB 1   WCI  27  
MIDDLEBURY*    LGT RAIN  38  35  92 N9        29.66S WCI  31          
RUTLAND*       LGT RAIN  37  37 100 NW6       29.63S                  
SPRINGFIELD    LGT SNOW  34  29  82 VRB5      29.63S WCI  30          
HIGHGATE*      LGT RAIN  40  36  87 NE10      29.73F                  
NEWPORT*       LGT SNOW  33  32  94 N10       29.71F WCI  25          

_____LAKE CHAMPLAIN_
  
CITY           SKY/WX    TMP DP  RH WIND       PRES   REMARKS
COLCHESTER RF*   N/A     39  36  87 N14         N/A  WCI  31          

$$


SKY/WX - Weather  TMP - Temperature  DP - Dew Point  RH - Relative Humidity
WIND - Wind Direction/Speed PRES - Barometric Pressure VSB - Visibility
WCI - Wind Chill Index E13G22 Wind - East Wind 13 mph/Gusts of 22 mph